Location: Seasalter
(51.3333°N, 1.0167°E)
Time: 10:00:21
(UTC+00:00)

Okean 3 Rocket - Pass Details

Date: 26 September 2023
Orbit: 613 x 642 km, 82.5° (Epoch: 09 December)

Event Time Altitude Azimuth Distance (km) Brightness Sun altitude
Rises 03:46:14 0° 348° (NNW) 2,953 7.2 -19.3°
Reaches altitude 10° 03:48:29 10° 348° (NNW) 2,036 6.3 -19.0°
Maximum altitude 03:53:00 82° 262° (W) 646 3.5 -18.3°
Drops below altitude 10° 03:57:27 10° 175° (S) 2,001 6.0 -17.7°
Sets 03:59:40 0° 174° (S) 2,898 6.8 -17.4°
